Regional Weather Roundup
Issued by NWS Kansas City/Pleasant Hill, MO

Home | Current Version | Previous Version | Graphics & Text | Print | Product List | Glossary Off
Versions: 1 2 3 4 5 6 7 8 9 10 11 12 13 14 15 16 17 18 19 20 21 22 23 24 25 26 27

000
ASUS43 KEAX 270010
RWREAX

WEATHER ROUNDUP FOR EASTERN KANSAS AND NORTHWEST MISSOURI
NATIONAL WEATHER SERVICE KANSAS CITY/PLEASANT HILL MO
700 PM CDT THU MAY 26 2016

KSZ040-057-103>105-MOZ028-029-037-043-270100-
...KANSAS CITY METROPOLITAN AREA...

CITY           SKY/WX    TMP DP  RH WIND       PRES   REMARKS
K.C. INTL      TSTM      63  59  87 NE20G25   29.82F
6HR MIN TEMP:  61; 6HR MAX TEMP:  75; 6HR PCP:  2.91;

K.C. DOWNTOWN  LGT RAIN  65  60  84 NE8G24    29.85R
6HR MIN TEMP:  63; 6HR MAX TEMP:  78; 6HR PCP:  1.03;

LEES SUMMIT    CLOUDY    63  60  90 NE16G22   29.85F
6HR MIN TEMP:  62; 6HR MAX TEMP:  83; 6HR PCP:  1.00;

OLATHE - IXD   LGT RAIN  63  61  93 NE17      29.81F FOG
6HR MIN TEMP:  62; 6HR MAX TEMP:  84; 6HR PCP:  0.48;

OLATHE - OJC   LGT RAIN  62  60  93 NE12      29.84S FOG
6HR MIN TEMP:  62; 6HR MAX TEMP:  82; 6HR PCP:  0.49;

LAWRENCE       CLOUDY    63  60  90 NW18G25   29.84R THUNDER

$$

MOZ001>008-011>017-020>025-030>033-038>040-044>046-053-054-270100-
...NORTHERN AND CENTRAL MISSOURI...

CITY           SKY/WX    TMP DP  RH WIND       PRES   REMARKS
ST. JOSEPH     CLOUDY    65  59  81 E13G22    29.77F
6HR MIN TEMP:  63; 6HR MAX TEMP:  74; 6HR PCP:  1.90;

WHITEMAN AFB   CLOUDY    66  66 100 NW18G28   29.83R
6HR MIN TEMP:  66; 6HR MAX TEMP:  85; 6HR PCP:  1.36;

CLINTON        NOT AVBL
SEDALIA        TSTM      68  66  93 N10       29.87F FOG
6HR MIN TEMP:  68; 6HR MAX TEMP:  87; 6HR PCP:  0.88;

WARSAW         NOT AVBL
CHILLICOTHE      N/A     65  62  90 VRB7G21   29.94R
6HR MIN TEMP:  64; 6HR MAX TEMP:  77; 6HR PCP:  0.33;

KIRKSVILLE     LGT RAIN  72  63  73 N8G18     29.88R
6HR MIN TEMP:  72; 6HR MAX TEMP:  80; 6HR PCP: TRACE;


$$

MOZ041-047>049-056>058-063>065-088>090-097-270100-
...EASTERN AND SOUTHERN MISSOURI...

CITY           SKY/WX    TMP DP  RH WIND       PRES   REMARKS
ST. LOUIS INTL PTSUNNY   78  64  61 S14       29.86F
6HR MIN TEMP:  74; 6HR MAX TEMP:  82;

SPIRIT OF STL  CLOUDY    77  68  73 S5        29.85S
COLUMBIA       CLOUDY    79  67  66 SE9       29.84R
JEFFERSON CITY LGT RAIN  79  67  66 S12G22    29.83R
ROLLA          CLOUDY    77  68  73 SE9       29.85R
SPRINGFIELD    CLOUDY    79  68  69 S30G38    29.83F
BRANSON        TSTM      68  66  94 S14G23    29.92R
JOPLIN         CLOUDY    80  65  59 S31G44    29.81R
WEST PLAINS    CLOUDY    78  68  71 S12       29.90R

$$

IAZ060-094-KSZ022-034>040-054-083-096-NEZ052-066-093-270100-
...KANSAS...SOUTHEAST NEBRASKA AND IOWA...

CITY           SKY/WX    TMP DP  RH WIND       PRES   REMARKS
TOPEKA         LGT RAIN  64  60  87 E14G23    29.79R
6HR MIN TEMP:  62; 6HR MAX TEMP:  79; 6HR PCP:  1.56;

MANHATTAN      RAIN      65  62  90 CALM      29.81R FOG
EMPORIA        CLOUDY    67  63  87 E13       29.73F
CHANUTE        CLOUDY    81  70  69 S15G21    29.76R
WICHITA        CLOUDY    83  68  60 S20G29    29.64F
OMAHA          LGT RAIN  65  58  78 E33G44    29.83R
LINCOLN        RAIN      63  60  90 W5        29.88R FOG
FALLS CITY     LGT RAIN  66  62  87 N13       29.82R
LAMONI         RAIN      64  60  87 SW14      29.95R
DES MOINES     TSTM      65  59  81 SW32      29.94R VSB 3/4

$$





USA.gov is the U.S. government's official web portal to all federal, state and local government web resources and services.